STARLINK-35125

Last updated on Tue Oct 07 2025 00:02:06 GMT+0000 (Coordinated Universal Time)

1 65534U 25200Q 25279.50003471 .00010728 00000+0 19884-3 0 9997 2 65534 97.6036 346.2129 0001482 92.9816 16.1305 15.49176248 5810
UTC large
Height (km)
Speed (km/s)
/
Latitude / Longitude
Inclination (degrees)
Orbital Period (minutes)
Azimuth
Elevation
Range (km)
Doppler Factor

Next 0 passes for location: London (51.5072 / 0.1276)

Sorry there are no passes over London.
STARLINK-35125